• în Republica Moldova
  • Lista ţărilor
  • Pe 7 zile
  • Temperatura apei
  • Hartă satelitară
  • Meteo pe hartă
  • Widget-uri
  • user-avatar
    Intrare

    Meteo pe oră la Solden

    Astăzi, 20 Februarie, Luni

    Timp Temperatura Precipitaţii Vânt Presiune Umiditate
    00:00 -14°C° 0 mm 2 m/s 578 mmHg 88%
    01:00 -14°C° 0 mm 2 m/s 578 mmHg 87%
    02:00 -15°C° 0 mm 2 m/s 578 mmHg 87%
    03:00 -15°C° 0 mm 2 m/s 578 mmHg 86%
    04:00 -15°C° 0 mm 2 m/s 578 mmHg 85%
    05:00 -15°C° 0 mm 2 m/s 578 mmHg 85%
    06:00 -15°C° 0 mm 2 m/s 578 mmHg 85%
    07:00 -15°C° 0 mm 2 m/s 578 mmHg 84%
    08:00 -10°C° 0 mm 1 m/s 579 mmHg 82%
    09:00 -8°C° 0 mm 1 m/s 580 mmHg 81%
    10:00 -4°C° 0 mm 1 m/s 582 mmHg 79%
    11:00 -3°C° 0 mm 1 m/s 582 mmHg 78%
    12:00 -2°C° 0 mm 1 m/s 583 mmHg 76%
    13:00 -1°C° 0 mm 1 m/s 583 mmHg 75%
    14:00 -1°C° 0 mm 1 m/s 583 mmHg 78%
    15:00 -1°C° 0 mm 1 m/s 582 mmHg 80%
    16:00 -2°C° 0 mm 1 m/s 582 mmHg 82%
    17:00 -4°C° 0 mm 1 m/s 581 mmHg 85%
    18:00 -8°C° 0 mm 1 m/s 579 mmHg 88%
    19:00 -11°C° 0 mm 1 m/s 578 mmHg 91%
    20:00 -11°C° 0 mm 1 m/s 578 mmHg 90%
    21:00 -11°C° 0 mm 1 m/s 578 mmHg 90%
    22:00 -10°C° 0 mm 1 m/s 578 mmHg 89%
    23:00 -9°C° 0 mm 1 m/s 579 mmHg 87%

    Mâine, 21 Februarie, Marţi

    Timp Temperatura Precipitaţii Vânt Presiune Umiditate
    00:00 -8°C° 0 mm 1 m/s 579 mmHg 86%
    01:00 -7°C° 0 mm 1 m/s 580 mmHg 84%
    02:00 -7°C° 0,1 mm 1 m/s 580 mmHg 85%
    03:00 -7°C° 0,1 mm 1 m/s 580 mmHg 85%
    04:00 -6°C° 0,1 mm 1 m/s 580 mmHg 85%
    05:00 -6°C° 0,1 mm 1 m/s 580 mmHg 86%
    06:00 -6°C° 0,1 mm 1 m/s 579 mmHg 86%
    07:00 -6°C° 0,1 mm 1 m/s 579 mmHg 87%
    08:00 -3°C° 0 mm 1 m/s 580 mmHg 87%
    09:00 -2°C° 0 mm 1 m/s 581 mmHg 87%
    10:00 0°C° 0 mm 1 m/s 582 mmHg 86%
    11:00 +1°C° 0,1 mm 1 m/s 582 mmHg 86%
    12:00 +1°C° 0,1 mm 1 m/s 582 mmHg 86%
    13:00 +2°C° 0,1 mm 1 m/s 582 mmHg 86%
    14:00 +2°C° 0,1 mm 1 m/s 582 mmHg 88%
    15:00 +1°C° 0,1 mm 1 m/s 581 mmHg 90%
    16:00 +1°C° 0,1 mm 1 m/s 581 mmHg 92%
    17:00 0°C° 0,1 mm 1 m/s 581 mmHg 93%
    18:00 -2°C° 0,1 mm 1 m/s 580 mmHg 94%
    19:00 -3°C° 0,1 mm 1 m/s 580 mmHg 95%
    20:00 -3°C° 0 mm 1 m/s 579 mmHg 95%
    21:00 -4°C° 0 mm 1 m/s 579 mmHg 94%
    22:00 -6°C° 0 mm 1 m/s 579 mmHg 94%
    23:00 -6°C° 0 mm 1 m/s 578 mmHg 94%

    Poimâine, 22 Februarie, Miercuri

    Timp Temperatura Precipitaţii Vânt Presiune Umiditate
    00:00 -7°C° 0 mm 1 m/s 578 mmHg 94%
    01:00 -8°C° 0 mm 1 m/s 578 mmHg 94%
    02:00 -8°C° 0 mm 1 m/s 577 mmHg 94%
    03:00 -8°C° 0 mm 1 m/s 577 mmHg 94%
    04:00 -8°C° 0 mm 1 m/s 577 mmHg 94%
    05:00 -8°C° 0 mm 1 m/s 577 mmHg 94%
    06:00 -8°C° 0 mm 1 m/s 577 mmHg 93%
    07:00 -7°C° 0 mm 1 m/s 577 mmHg 93%
    08:00 -4°C° 0 mm 1 m/s 578 mmHg 91%
    09:00 -2°C° 0 mm 1 m/s 579 mmHg 88%
    10:00 0°C° 0 mm 1 m/s 580 mmHg 86%
    11:00 +1°C° 0 mm 1 m/s 580 mmHg 86%
    12:00 +2°C° 0 mm 1 m/s 580 mmHg 86%
    13:00 +2°C° 0 mm 1 m/s 580 mmHg 86%
    14:00 +2°C° 0 mm 1 m/s 580 mmHg 88%
    15:00 +2°C° 0 mm 1 m/s 579 mmHg 90%
    16:00 +1°C° 0 mm 1 m/s 579 mmHg 92%
    17:00 0°C° 0 mm 1 m/s 578 mmHg 93%
    18:00 -2°C° 0 mm 1 m/s 578 mmHg 93%
    19:00 -4°C° 0 mm 1 m/s 577 mmHg 94%
    20:00 -4°C° 0 mm 1 m/s 577 mmHg 93%
    21:00 -6°C° 0 mm 1 m/s 577 mmHg 93%
    22:00 -6°C° 0 mm 1 m/s 577 mmHg 92%
    23:00 -7°C° 0 mm 1 m/s 577 mmHg 92%

    23 Februarie, Joi

    Timp Temperatura Precipitaţii Vânt Presiune Umiditate
    00:00 -7°C° 0 mm 1 m/s 576 mmHg 91%
    01:00 -7°C° 0 mm 1 m/s 576 mmHg 91%
    02:00 -7°C° 0 mm 1 m/s 576 mmHg 91%
    03:00 -7°C° 0 mm 1 m/s 576 mmHg 90%
    04:00 -7°C° 0 mm 1 m/s 575 mmHg 89%
    05:00 -7°C° 0 mm 1 m/s 575 mmHg 88%
    06:00 -8°C° 0 mm 1 m/s 575 mmHg 87%
    07:00 -8°C° 0 mm 1 m/s 575 mmHg 85%
    08:00 -6°C° 0 mm 1 m/s 576 mmHg 84%
    09:00 -2°C° 0 mm 1 m/s 577 mmHg 84%
    10:00 -2°C° 0 mm 2 m/s 578 mmHg 83%
    11:00 -2°C° 0 mm 2 m/s 578 mmHg 84%
    12:00 -1°C° 0 mm 2 m/s 578 mmHg 85%
    13:00 -1°C° 0 mm 2 m/s 577 mmHg 86%
    14:00 -1°C° 0 mm 2 m/s 577 mmHg 88%
    15:00 -1°C° 0 mm 2 m/s 576 mmHg 89%
    16:00 -2°C° 0 mm 2 m/s 576 mmHg 90%
    17:00 -3°C° 0 mm 2 m/s 575 mmHg 92%
    18:00 -4°C° 0 mm 2 m/s 575 mmHg 94%
    19:00 -5°C° 0 mm 2 m/s 574 mmHg 96%
    20:00 -5°C° 0 mm 2 m/s 574 mmHg 96%
    21:00 -5°C° 0 mm 2 m/s 573 mmHg 96%
    22:00 -6°C° 0 mm 2 m/s 573 mmHg 96%
    23:00 -6°C° 0 mm 2 m/s 573 mmHg 96%

    24 Februarie, Vineri

    Timp Temperatura Precipitaţii Vânt Presiune Umiditate
    00:00 -6°C° 0 mm 2 m/s 572 mmHg 96%
    01:00 -6°C° 0 mm 2 m/s 572 mmHg 95%
    02:00 -4°C° 0,1 mm 1 m/s 571 mmHg 95%
    03:00 -4°C° 0,1 mm 1 m/s 571 mmHg 95%
    04:00 -4°C° 0,1 mm 1 m/s 570 mmHg 94%
    05:00 -4°C° 0,2 mm 1 m/s 570 mmHg 94%
    06:00 -4°C° 0,2 mm 1 m/s 570 mmHg 94%
    07:00 -4°C° 0,2 mm 1 m/s 570 mmHg 93%
    08:00 -3°C° 0,3 mm 1 m/s 570 mmHg 91%
    09:00 -3°C° 0,3 mm 1 m/s 571 mmHg 89%
    10:00 -2°C° 0,3 mm 1 m/s 571 mmHg 86%
    11:00 -5°C° 0,5 mm 2 m/s 571 mmHg 85%
    12:00 -6°C° 0,5 mm 3 m/s 571 mmHg 83%
    13:00 -7°C° 0,5 mm 3 m/s 570 mmHg 82%
    14:00 -7°C° 0,3 mm 3 m/s 570 mmHg 80%
    15:00 -9°C° 0,3 mm 4 m/s 570 mmHg 77%
    16:00 -10°C° 0,3 mm 4 m/s 570 mmHg 74%
    17:00 -11°C° 0,1 mm 4 m/s 570 mmHg 76%
    18:00 -12°C° 0,1 mm 4 m/s 571 mmHg 78%
    19:00 -14°C° 0,1 mm 4 m/s 571 mmHg 80%
    20:00 -13°C° 0,1 mm 3 m/s 572 mmHg 81%
    21:00 -13°C° 0,1 mm 3 m/s 573 mmHg 81%
    22:00 -13°C° 0,1 mm 3 m/s 574 mmHg 81%
    23:00 -12°C° 0,2 mm 2 m/s 574 mmHg 81%

    25 Februarie, Sâmbătă

    Timp Temperatura Precipitaţii Vânt Presiune Umiditate
    00:00 -12°C° 0,2 mm 2 m/s 575 mmHg 80%
    01:00 -12°C° 0,2 mm 2 m/s 576 mmHg 80%
    02:00 -13°C° 0,1 mm 2 m/s 576 mmHg 81%
    03:00 -13°C° 0,1 mm 2 m/s 576 mmHg 81%
    04:00 -14°C° 0,1 mm 2 m/s 576 mmHg 82%
    05:00 -14°C° 0 mm 2 m/s 576 mmHg 82%
    06:00 -15°C° 0 mm 2 m/s 576 mmHg 82%
    07:00 -15°C° 0 mm 2 m/s 577 mmHg 82%
    08:00 -13°C° 0 mm 2 m/s 578 mmHg 78%
    09:00 -12°C° 0 mm 2 m/s 579 mmHg 74%
    10:00 -9°C° 0 mm 2 m/s 580 mmHg 70%
    11:00 -7°C° 0 mm 2 m/s 581 mmHg 68%
    12:00 -4°C° 0 mm 1 m/s 581 mmHg 66%
    13:00 -2°C° 0 mm 1 m/s 582 mmHg 64%
    14:00 -2°C° 0 mm 1 m/s 582 mmHg 67%
    15:00 -2°C° 0 mm 1 m/s 582 mmHg 71%
    16:00 -2°C° 0 mm 1 m/s 582 mmHg 74%
    17:00 -3°C° 0,1 mm 1 m/s 581 mmHg 77%
    18:00 -4°C° 0,1 mm 1 m/s 581 mmHg 80%
    19:00 -7°C° 0,1 mm 1 m/s 580 mmHg 83%
    20:00 -6°C° 0,3 mm 1 m/s 580 mmHg 83%
    21:00 -6°C° 0,3 mm 1 m/s 581 mmHg 83%
    22:00 -6°C° 0,3 mm 1 m/s 581 mmHg 83%
    23:00 -6°C° 0,2 mm 1 m/s 581 mmHg 83%
    Arată mai mult